Location: Ammerl�gen
(47.2167°N, 9.6000°E)
Time: 13:36:10
(UTC+00:00)

Cosmos 676 Rocket - Pass Details

Date: 04 August 2021
Orbit: 755 x 783 km, 74.0° (Epoch: 26 September)

Event Time Altitude Azimuth Distance (km) Brightness Sun altitude
Exits shadow 01:53:53 27° 247° (WSW) 1,487 5.0 -17.7°
Maximum altitude 01:56:18 42° 300° (WNW) 1,110 4.7 -17.5°
Drops below altitude 10° 02:01:22 10° 11° (N) 2,347 7.5 -16.9°
Sets 02:03:54 0° 18° (NNE) 3,276 8.6 -16.7°
